When you browse on this site, cookies collect data to enhance your experience and personalize the content and advertising you see.
Visit our Privacy Policy to learn more. By continuing to use the site, you agree to this use of cookies and data.
  • In Sweden
  • List of Countries
  • For 7 days
  • Water Temperature
  • Satellite Maps
  • Weather Map
  • Weather Widgets
  • user-avatar
    Login

    Hourly Weather Stirling

    Today, 21 March, Thursday

    Time Temperature Precipitation Wind Pressure Humidity
    00:00 +10°C° 0 mm 7 mps 767 mmHg 89%
    01:00 +10°C° 0.1 mm 7 mps 767 mmHg 89%
    02:00 +10°C° 0.1 mm 7 mps 767 mmHg 89%
    03:00 +10°C° 0.1 mm 6 mps 767 mmHg 89%
    04:00 +10°C° 0.1 mm 6 mps 767 mmHg 89%
    05:00 +10°C° 0.1 mm 6 mps 768 mmHg 90%
    06:00 +10°C° 0.1 mm 6 mps 768 mmHg 90%
    07:00 +10°C° 0.1 mm 5 mps 769 mmHg 91%
    08:00 +10°C° 0.1 mm 5 mps 769 mmHg 91%
    09:00 +11°C° 0.1 mm 4 mps 770 mmHg 91%
    10:00 +11°C° 0.1 mm 4 mps 770 mmHg 90%
    11:00 +12°C° 0.1 mm 4 mps 770 mmHg 89%
    12:00 +12°C° 0.1 mm 4 mps 770 mmHg 88%
    13:00 +12°C° 0 mm 4 mps 770 mmHg 88%
    14:00 +12°C° 0 mm 4 mps 770 mmHg 87%
    15:00 +13°C° 0 mm 4 mps 770 mmHg 86%
    16:00 +12°C° 0 mm 4 mps 769 mmHg 87%
    17:00 +12°C° 0 mm 4 mps 769 mmHg 88%
    18:00 +12°C° 0 mm 3 mps 769 mmHg 89%
    19:00 +12°C° 0 mm 3 mps 769 mmHg 90%
    20:00 +11°C° 0 mm 4 mps 768 mmHg 90%
    21:00 +11°C° 0 mm 4 mps 768 mmHg 90%
    22:00 +11°C° 0 mm 4 mps 767 mmHg 91%
    23:00 +10°C° 0 mm 4 mps 766 mmHg 91%

    Tomorrow, 22 March, Friday

    Time Temperature Precipitation Wind Pressure Humidity
    00:00 +10°C° 0 mm 4 mps 766 mmHg 92%
    01:00 +9°C° 0 mm 5 mps 765 mmHg 90%
    02:00 +9°C° 0 mm 6 mps 764 mmHg 88%
    03:00 +10°C° 0 mm 7 mps 763 mmHg 86%
    04:00 +10°C° 0.1 mm 7 mps 763 mmHg 85%
    05:00 +10°C° 0.1 mm 8 mps 762 mmHg 83%
    06:00 +10°C° 0.1 mm 9 mps 761 mmHg 82%
    07:00 +10°C° 0.1 mm 9 mps 761 mmHg 81%
    08:00 +10°C° 0.1 mm 9 mps 760 mmHg 80%
    09:00 +9°C° 0.1 mm 10 mps 760 mmHg 79%
    10:00 +10°C° 0.6 mm 9 mps 760 mmHg 81%
    11:00 +8°C° 0.6 mm 9 mps 760 mmHg 84%
    12:00 +8°C° 0.6 mm 9 mps 760 mmHg 87%
    13:00 +8°C° 0.2 mm 9 mps 761 mmHg 80%
    14:00 +8°C° 0.2 mm 9 mps 761 mmHg 73%
    15:00 +8°C° 0.2 mm 9 mps 762 mmHg 66%
    16:00 +7°C° 0 mm 8 mps 763 mmHg 66%
    17:00 +6°C° 0 mm 7 mps 764 mmHg 66%
    18:00 +5°C° 0 mm 7 mps 764 mmHg 65%
    19:00 +4°C° 0 mm 6 mps 765 mmHg 67%
    20:00 +3°C° 0 mm 6 mps 766 mmHg 69%
    21:00 +3°C° 0 mm 5 mps 767 mmHg 71%
    22:00 +2°C° 0 mm 5 mps 767 mmHg 71%
    23:00 +2°C° 0 mm 5 mps 768 mmHg 71%

    Day after tomorrow, 23 March, Saturday

    Time Temperature Precipitation Wind Pressure Humidity
    00:00 +2°C° 0 mm 5 mps 768 mmHg 72%
    01:00 +1°C° 0 mm 5 mps 769 mmHg 71%
    02:00 +1°C° 0 mm 5 mps 769 mmHg 70%
    03:00 +1°C° 0 mm 5 mps 770 mmHg 69%
    04:00 +1°C° 0 mm 4 mps 770 mmHg 71%
    05:00 +1°C° 0 mm 4 mps 770 mmHg 74%
    06:00 +1°C° 0 mm 3 mps 771 mmHg 76%
    07:00 +3°C° 0 mm 4 mps 771 mmHg 72%
    08:00 +4°C° 0 mm 4 mps 772 mmHg 67%
    09:00 +5°C° 0 mm 4 mps 772 mmHg 63%
    10:00 +6°C° 0 mm 4 mps 772 mmHg 60%
    11:00 +7°C° 0 mm 5 mps 773 mmHg 57%
    12:00 +7°C° 0 mm 5 mps 773 mmHg 54%
    13:00 +8°C° 0 mm 5 mps 773 mmHg 54%
    14:00 +8°C° 0 mm 5 mps 773 mmHg 53%
    15:00 +8°C° 0 mm 5 mps 772 mmHg 53%
    16:00 +7°C° 0 mm 4 mps 772 mmHg 58%
    17:00 +6°C° 0 mm 4 mps 772 mmHg 62%
    18:00 +5°C° 0 mm 3 mps 772 mmHg 67%
    19:00 +4°C° 0 mm 3 mps 772 mmHg 71%
    20:00 +4°C° 0 mm 3 mps 772 mmHg 75%
    21:00 +4°C° 0 mm 2 mps 773 mmHg 79%
    22:00 +4°C° 0 mm 2 mps 772 mmHg 81%
    23:00 +3°C° 0 mm 2 mps 772 mmHg 84%

    24 March, Sunday

    Time Temperature Precipitation Wind Pressure Humidity
    00:00 +3°C° 0 mm 2 mps 772 mmHg 86%
    01:00 +2°C° 0 mm 3 mps 772 mmHg 88%
    02:00 +2°C° 0 mm 3 mps 771 mmHg 90%
    03:00 +1°C° 0 mm 3 mps 771 mmHg 91%
    04:00 +2°C° 0 mm 3 mps 771 mmHg 90%
    05:00 +2°C° 0 mm 3 mps 770 mmHg 88%
    06:00 +1°C° 0 mm 4 mps 770 mmHg 87%
    07:00 +2°C° 0 mm 5 mps 770 mmHg 81%
    08:00 +4°C° 0 mm 6 mps 770 mmHg 75%
    09:00 +5°C° 0 mm 8 mps 770 mmHg 70%
    10:00 +5°C° 0.1 mm 8 mps 769 mmHg 71%
    11:00 +5°C° 0.1 mm 8 mps 769 mmHg 73%
    12:00 +6°C° 0.1 mm 8 mps 769 mmHg 75%
    13:00 +6°C° 0.1 mm 8 mps 769 mmHg 72%
    14:00 +7°C° 0.1 mm 8 mps 769 mmHg 68%
    15:00 +7°C° 0.1 mm 9 mps 769 mmHg 65%
    16:00 +7°C° 0.1 mm 8 mps 769 mmHg 69%
    17:00 +6°C° 0.1 mm 7 mps 769 mmHg 72%
    18:00 +7°C° 0.1 mm 6 mps 769 mmHg 76%
    19:00 +6°C° 0 mm 5 mps 770 mmHg 78%
    20:00 +6°C° 0 mm 5 mps 770 mmHg 79%
    21:00 +6°C° 0 mm 5 mps 770 mmHg 81%
    22:00 +5°C° 0 mm 4 mps 771 mmHg 82%
    23:00 +5°C° 0 mm 4 mps 771 mmHg 82%

    25 March, Monday

    Time Temperature Precipitation Wind Pressure Humidity
    00:00 +5°C° 0 mm 4 mps 771 mmHg 83%
    01:00 +5°C° 0 mm 4 mps 771 mmHg 84%
    02:00 +5°C° 0 mm 4 mps 771 mmHg 86%
    03:00 +5°C° 0 mm 4 mps 772 mmHg 87%
    04:00 +4°C° 0 mm 3 mps 772 mmHg 88%
    05:00 +4°C° 0 mm 3 mps 772 mmHg 90%
    06:00 +3°C° 0 mm 3 mps 773 mmHg 91%
    07:00 +5°C° 0 mm 3 mps 773 mmHg 85%
    08:00 +7°C° 0 mm 3 mps 774 mmHg 80%
    09:00 +7°C° 0 mm 4 mps 774 mmHg 74%
    10:00 +8°C° 0 mm 4 mps 774 mmHg 70%
    11:00 +10°C° 0 mm 4 mps 775 mmHg 66%
    12:00 +11°C° 0 mm 4 mps 775 mmHg 62%
    13:00 +11°C° 0 mm 4 mps 775 mmHg 61%
    14:00 +11°C° 0 mm 4 mps 775 mmHg 61%
    15:00 +12°C° 0 mm 4 mps 775 mmHg 60%
    16:00 +11°C° 0 mm 3 mps 775 mmHg 65%
    17:00 +10°C° 0 mm 3 mps 775 mmHg 70%
    18:00 +9°C° 0 mm 2 mps 775 mmHg 75%
    19:00 +8°C° 0 mm 2 mps 775 mmHg 80%
    20:00 +7°C° 0 mm 2 mps 776 mmHg 85%
    21:00 +6°C° 0 mm 2 mps 776 mmHg 89%
    22:00 +5°C° 0 mm 2 mps 776 mmHg 91%
    23:00 +5°C° 0 mm 2 mps 776 mmHg 92%

    26 March, Tuesday

    Time Temperature Precipitation Wind Pressure Humidity
    00:00 +4°C° 0 mm 2 mps 776 mmHg 93%
    01:00 +4°C° 0 mm 2 mps 776 mmHg 94%
    02:00 +4°C° 0 mm 2 mps 776 mmHg 94%
    03:00 +3°C° 0 mm 2 mps 776 mmHg 95%
    04:00 +3°C° 0 mm 2 mps 776 mmHg 95%
    05:00 +3°C° 0 mm 2 mps 776 mmHg 95%
    06:00 +3°C° 0 mm 2 mps 776 mmHg 96%
    07:00 +4°C° 0 mm 2 mps 776 mmHg 91%
    08:00 +6°C° 0 mm 2 mps 776 mmHg 87%
    09:00 +7°C° 0 mm 3 mps 776 mmHg 83%
    10:00 +7°C° 0 mm 4 mps 776 mmHg 78%
    11:00 +8°C° 0 mm 4 mps 775 mmHg 73%
    12:00 +9°C° 0 mm 5 mps 775 mmHg 69%
    13:00 +10°C° 0 mm 5 mps 775 mmHg 67%
    14:00 +10°C° 0 mm 5 mps 775 mmHg 65%
    15:00 +10°C° 0 mm 6 mps 774 mmHg 64%
    16:00 +10°C° 0 mm 5 mps 774 mmHg 67%
    17:00 +9°C° 0 mm 5 mps 774 mmHg 71%
    18:00 +8°C° 0 mm 4 mps 774 mmHg 75%
    19:00 +7°C° 0 mm 4 mps 774 mmHg 79%
    20:00 +7°C° 0 mm 4 mps 775 mmHg 82%
    21:00 +6°C° 0 mm 4 mps 775 mmHg 86%
    22:00 +6°C° 0 mm 4 mps 775 mmHg 88%
    23:00 +6°C° 0 mm 4 mps 774 mmHg 90%
    Show more